Regional Weather Roundup
Issued by NWS

Home | Current Version | Previous Version | Graphics & Text | Print | Product List | Glossary On
Versions: 1 2 3 4 5 6 7 8 9 10 11 12 13 14 15 16 17 18 19 20 21 22 23 24 25 26 27 28 29 30 31 32 33 34 35 36 37 38 39 40 41 42 43 44 45 46 47 48 49 50
000
ASUS43 KBIS 190510
RWRND

NORTH DAKOTA REGIONAL WEATHER ROUNDUP
NATIONAL WEATHER SERVICE BISMARCK ND
1100 PM CST THU DEC 18 2014

NOTE: "FAIR" INDICATES FEW OR NO CLOUDS BELOW 12,000 FEET WITH NO
SIGNIFICANT WEATHER AND/OR OBSTRUCTIONS TO VISIBILITY.


NDZ001>003-009>011-017-190600-
NORTHWEST NORTH DAKOTA

CITY           SKY/WX    TMP DP  RH WIND       PRES   REMARKS
WILLISTON      CLOUDY    28  27  96 CALM      29.92S FOG
MINOT          CLOUDY    24  21  88 E3        29.96S FOG
MINOT AFB      CLOUDY    24  23  99 E5        29.96S WCI  18
$$

NDZ018>021-031>035-040>046-190600-
SOUTHWEST NORTH DAKOTA

CITY           SKY/WX    TMP DP  RH WIND       PRES   REMARKS
BISMARCK       CLOUDY    28  27  96 S5        30.00F
DICKINSON      PTCLDY    27  21  78 SW8       29.91S WCI  19
GARRISON         N/A     29  27  92 S7        29.95F
HETTINGER ARPT CLEAR     22  20  92 CALM      29.96S
$$

NDZ004>008-012>016-024-026-027-054-190600-
NORTHEAST NORTH DAKOTA

CITY           SKY/WX    TMP DP  RH WIND       PRES   REMARKS
GRAND FORKS    CLOUDY    20  16  84 S9        30.15R WCI   9
GRND FRKS AFB  CLOUDY    20  20  99 S10       30.14S WCI   8
DEVILS LAKE    CLOUDY    21  14  73 S13       30.02S WCI   9
$$

NDZ022-023-025-028>030-036>039-047>053-190600-
SOUTHEAST NORTH DAKOTA

CITY           SKY/WX    TMP DP  RH WIND       PRES   REMARKS
FARGO          LGT SNOW  22  17  81 S15       30.17R WCI   9
JAMESTOWN      CLOUDY    24  22  91 S10       30.06R FOG     WCI  14
$$



USA.gov is the U.S. government's official web portal to all federal, state and local government web resources and services.